Find Skynet 4F

NORAD ID: 26695 Int'l Des: 2001-005 Owner: MOD Country: UK operational
HEOCIRCULAR

Live Position

Loading 3D Globe...

About Skynet 4F

Description loading...

Upcoming Passes

Passes for default location (London). Set your location on the main map for personalized predictions.

Altitude History

Loading altitude history...

Two-Line Element Set

1 26695U 01005B 26103.94871889 -.00000064 00000-0 00000+0 0 9990
2 26695 12.0582 18.8620 0004955 234.3719 309.7289 0.99149578 91971
Epoch: Apr 13, 2026 • Age: 12 hours

Current Status

Altitude 36118.1 km
Velocity 3.06 km/s
Sub-Earth Point 1.75°N, 17.06°E
Launch Date Feb 7, 2001
Age 25.1 years
Type other

Technical Details

Classification Payload
Mass 1489.00 kg
Dry Mass 830.00 kg
Total Mass 2119.00 kg
Length 1.80 m
Diameter 1.90 m
Span 16.10 m
Shape Box + 2 Pan
Manufacturer ASTUK
Bus Type ECS
Phase Status Renamed
Owner/State MOD/UK

Most Searched